• în România
  • Lista ţărilor
  • Pe 7 zile
  • Temperatura apei
  • Hartă satelitară
  • Meteo pe hartă
  • Widget-uri
  • user-avatar
    Intrare

    Meteo pe oră la Stepanakert

    Astăzi, 26 Martie, Duminică

    Timp Temperatura Precipitaţii Vânt Presiune Umiditate
    00:00 +4°C° 0 mm 1 m/s 690 mmHg 85%
    01:00 +3°C° 0 mm 1 m/s 690 mmHg 85%
    02:00 +3°C° 0 mm 1 m/s 690 mmHg 85%
    03:00 +3°C° 0 mm 1 m/s 690 mmHg 83%
    04:00 +2°C° 0 mm 1 m/s 690 mmHg 81%
    05:00 +2°C° 0 mm 1 m/s 691 mmHg 80%
    06:00 +2°C° 0 mm 1 m/s 691 mmHg 79%
    07:00 +5°C° 0 mm 1 m/s 691 mmHg 70%
    08:00 +8°C° 0 mm 1 m/s 691 mmHg 61%
    09:00 +11°C° 0 mm 1 m/s 692 mmHg 53%
    10:00 +12°C° 0 mm 1 m/s 691 mmHg 50%
    11:00 +13°C° 0 mm 2 m/s 691 mmHg 48%
    12:00 +14°C° 0 mm 2 m/s 691 mmHg 45%
    13:00 +14°C° 0 mm 2 m/s 691 mmHg 45%
    14:00 +15°C° 0 mm 2 m/s 691 mmHg 45%
    15:00 +15°C° 0 mm 2 m/s 690 mmHg 44%
    16:00 +13°C° 0 mm 2 m/s 690 mmHg 53%
    17:00 +11°C° 0 mm 1 m/s 690 mmHg 61%
    18:00 +9°C° 0 mm 1 m/s 690 mmHg 69%
    19:00 +8°C° 0 mm 1 m/s 690 mmHg 70%
    20:00 +7°C° 0 mm 1 m/s 691 mmHg 71%
    21:00 +6°C° 0 mm 2 m/s 691 mmHg 72%
    22:00 +6°C° 0 mm 2 m/s 691 mmHg 69%
    23:00 +6°C° 0 mm 2 m/s 691 mmHg 66%

    Mâine, 27 Martie, Luni

    Timp Temperatura Precipitaţii Vânt Presiune Umiditate
    00:00 +6°C° 0 mm 2 m/s 691 mmHg 64%
    01:00 +5°C° 0 mm 2 m/s 691 mmHg 63%
    02:00 +4°C° 0 mm 3 m/s 691 mmHg 62%
    03:00 +4°C° 0 mm 3 m/s 691 mmHg 61%
    04:00 +4°C° 0 mm 3 m/s 691 mmHg 61%
    05:00 +4°C° 0 mm 3 m/s 691 mmHg 61%
    06:00 +4°C° 0 mm 3 m/s 691 mmHg 61%
    07:00 +8°C° 0 mm 2 m/s 691 mmHg 54%
    08:00 +10°C° 0 mm 2 m/s 691 mmHg 47%
    09:00 +14°C° 0 mm 2 m/s 691 mmHg 41%
    10:00 +16°C° 0 mm 2 m/s 691 mmHg 38%
    11:00 +17°C° 0 mm 3 m/s 691 mmHg 35%
    12:00 +18°C° 0 mm 3 m/s 690 mmHg 32%
    13:00 +18°C° 0 mm 3 m/s 690 mmHg 33%
    14:00 +18°C° 0 mm 3 m/s 689 mmHg 33%
    15:00 +18°C° 0 mm 4 m/s 689 mmHg 33%
    16:00 +16°C° 0 mm 3 m/s 689 mmHg 39%
    17:00 +14°C° 0 mm 2 m/s 688 mmHg 46%
    18:00 +12°C° 0 mm 1 m/s 688 mmHg 53%
    19:00 +10°C° 0 mm 2 m/s 688 mmHg 54%
    20:00 +9°C° 0 mm 2 m/s 688 mmHg 56%
    21:00 +9°C° 0 mm 2 m/s 689 mmHg 57%
    22:00 +8°C° 0 mm 2 m/s 688 mmHg 58%
    23:00 +8°C° 0 mm 2 m/s 688 mmHg 58%

    Poimâine, 28 Martie, Marţi

    Timp Temperatura Precipitaţii Vânt Presiune Umiditate
    00:00 +8°C° 0 mm 2 m/s 688 mmHg 59%
    01:00 +8°C° 0 mm 2 m/s 688 mmHg 60%
    02:00 +7°C° 0 mm 2 m/s 688 mmHg 62%
    03:00 +7°C° 0 mm 2 m/s 688 mmHg 63%
    04:00 +6°C° 0 mm 2 m/s 689 mmHg 66%
    05:00 +6°C° 0 mm 2 m/s 689 mmHg 69%
    06:00 +6°C° 0 mm 2 m/s 689 mmHg 72%
    07:00 +7°C° 0 mm 3 m/s 690 mmHg 65%
    08:00 +9°C° 0 mm 3 m/s 691 mmHg 58%
    09:00 +11°C° 0 mm 4 m/s 692 mmHg 52%
    10:00 +11°C° 0,1 mm 4 m/s 692 mmHg 52%
    11:00 +12°C° 0,1 mm 4 m/s 692 mmHg 52%
    12:00 +12°C° 0,1 mm 4 m/s 692 mmHg 52%
    13:00 +12°C° 0,2 mm 4 m/s 692 mmHg 53%
    14:00 +11°C° 0,2 mm 3 m/s 691 mmHg 54%
    15:00 +11°C° 0,2 mm 3 m/s 691 mmHg 55%
    16:00 +10°C° 0,1 mm 2 m/s 691 mmHg 60%
    17:00 +9°C° 0,1 mm 2 m/s 691 mmHg 65%
    18:00 +9°C° 0,1 mm 1 m/s 691 mmHg 70%
    19:00 +8°C° 0 mm 1 m/s 692 mmHg 72%
    20:00 +7°C° 0 mm 1 m/s 692 mmHg 75%
    21:00 +6°C° 0 mm 1 m/s 692 mmHg 77%
    22:00 +6°C° 0 mm 1 m/s 692 mmHg 76%
    23:00 +5°C° 0 mm 1 m/s 692 mmHg 76%

    29 Martie, Miercuri

    Timp Temperatura Precipitaţii Vânt Presiune Umiditate
    00:00 +4°C° 0 mm 2 m/s 692 mmHg 75%
    01:00 +5°C° 0 mm 1 m/s 692 mmHg 75%
    02:00 +5°C° 0 mm 1 m/s 691 mmHg 75%
    03:00 +4°C° 0 mm 1 m/s 691 mmHg 75%
    04:00 +4°C° 0 mm 1 m/s 691 mmHg 75%
    05:00 +4°C° 0 mm 1 m/s 691 mmHg 76%
    06:00 +4°C° 0 mm 1 m/s 691 mmHg 76%
    07:00 +6°C° 0 mm 2 m/s 692 mmHg 66%
    08:00 +8°C° 0 mm 2 m/s 692 mmHg 57%
    09:00 +12°C° 0 mm 2 m/s 693 mmHg 47%
    10:00 +13°C° 0 mm 2 m/s 693 mmHg 44%
    11:00 +13°C° 0 mm 3 m/s 693 mmHg 41%
    12:00 +16°C° 0 mm 3 m/s 693 mmHg 38%
    13:00 +16°C° 0 mm 3 m/s 692 mmHg 38%
    14:00 +16°C° 0 mm 3 m/s 692 mmHg 38%
    15:00 +16°C° 0 mm 3 m/s 692 mmHg 38%
    16:00 +14°C° 0 mm 2 m/s 692 mmHg 45%
    17:00 +12°C° 0 mm 2 m/s 692 mmHg 52%
    18:00 +11°C° 0 mm 1 m/s 693 mmHg 59%
    19:00 +9°C° 0 mm 1 m/s 693 mmHg 65%
    20:00 +8°C° 0 mm 1 m/s 694 mmHg 70%
    21:00 +7°C° 0 mm 1 m/s 695 mmHg 75%
    22:00 +6°C° 0 mm 1 m/s 695 mmHg 78%
    23:00 +6°C° 0 mm 1 m/s 695 mmHg 82%

    30 Martie, Joi

    Timp Temperatura Precipitaţii Vânt Presiune Umiditate
    00:00 +5°C° 0 mm 1 m/s 695 mmHg 85%
    01:00 +5°C° 0 mm 1 m/s 695 mmHg 87%
    02:00 +4°C° 0 mm 1 m/s 696 mmHg 90%
    03:00 +4°C° 0 mm 1 m/s 696 mmHg 92%
    04:00 +4°C° 0 mm 1 m/s 696 mmHg 92%
    05:00 +4°C° 0 mm 1 m/s 696 mmHg 92%
    06:00 +4°C° 0 mm 1 m/s 697 mmHg 92%
    07:00 +6°C° 0 mm 1 m/s 697 mmHg 86%
    08:00 +6°C° 0 mm 2 m/s 697 mmHg 79%
    09:00 +7°C° 0 mm 2 m/s 697 mmHg 73%
    10:00 +8°C° 0 mm 2 m/s 697 mmHg 70%
    11:00 +9°C° 0 mm 2 m/s 697 mmHg 67%
    12:00 +10°C° 0 mm 2 m/s 696 mmHg 65%
    13:00 +10°C° 0 mm 2 m/s 696 mmHg 64%
    14:00 +10°C° 0 mm 2 m/s 695 mmHg 64%
    15:00 +12°C° 0 mm 2 m/s 694 mmHg 63%
    16:00 +9°C° 0 mm 2 m/s 694 mmHg 70%
    17:00 +9°C° 0 mm 1 m/s 694 mmHg 77%
    18:00 +8°C° 0 mm 1 m/s 693 mmHg 84%
    19:00 +7°C° 0 mm 1 m/s 693 mmHg 85%
    20:00 +6°C° 0 mm 1 m/s 693 mmHg 87%
    21:00 +5°C° 0 mm 1 m/s 693 mmHg 88%
    22:00 +5°C° 0 mm 1 m/s 693 mmHg 87%
    23:00 +5°C° 0 mm 1 m/s 692 mmHg 86%

    31 Martie, Vineri

    Timp Temperatura Precipitaţii Vânt Presiune Umiditate
    00:00 +5°C° 0 mm 1 m/s 692 mmHg 85%
    01:00 +5°C° 0 mm 1 m/s 691 mmHg 83%
    02:00 +5°C° 0 mm 1 m/s 691 mmHg 81%
    03:00 +5°C° 0 mm 1 m/s 691 mmHg 80%
    04:00 +5°C° 0 mm 1 m/s 691 mmHg 79%
    05:00 +6°C° 0 mm 1 m/s 691 mmHg 78%
    06:00 +6°C° 0 mm 1 m/s 690 mmHg 77%
    07:00 +9°C° 0 mm 1 m/s 691 mmHg 67%
    08:00 +12°C° 0 mm 1 m/s 691 mmHg 58%
    09:00 +14°C° 0 mm 1 m/s 692 mmHg 48%
    10:00 +16°C° 0 mm 2 m/s 692 mmHg 45%
    11:00 +17°C° 0 mm 2 m/s 691 mmHg 42%
    12:00 +18°C° 0 mm 2 m/s 691 mmHg 39%
    13:00 +18°C° 0 mm 2 m/s 691 mmHg 40%
    14:00 +18°C° 0 mm 2 m/s 691 mmHg 41%
    15:00 +18°C° 0 mm 2 m/s 690 mmHg 42%
    16:00 +16°C° 0 mm 2 m/s 690 mmHg 49%
    17:00 +14°C° 0 mm 1 m/s 690 mmHg 57%
    18:00 +12°C° 0 mm 1 m/s 690 mmHg 64%
    19:00 +11°C° 0 mm 1 m/s 691 mmHg 67%
    20:00 +11°C° 0 mm 1 m/s 691 mmHg 70%
    21:00 +9°C° 0 mm 2 m/s 691 mmHg 73%
    22:00 +8°C° 0,1 mm 2 m/s 691 mmHg 74%
    23:00 +8°C° 0,1 mm 2 m/s 691 mmHg 76%
    Arată mai mult